| time (UTC) | temp F | wind direction | speed knots | gust knots | rain 1hr in | rain 24hr in | rain mn in | humidity % | barometer mb |
| 20260505081532 | 51 | 31 | 0.9 | 2.6 | 0.00 | 0.28 | 0.01 | 71 | 1019.1 |
| 20260505080039 | 52 | 264 | 0.0 | 0.9 | 0.00 | 0.28 | 0.01 | 70 | 1018.8 |
| 20260505074544 | 53 | 285 | 0.0 | 1.7 | 0.00 | 0.28 | 0.01 | 67 | 1018.6 |
| 20260505073044 | 54 | 163 | 0.0 | 1.7 | 0.00 | 0.28 | 0.01 | 66 | 1018.3 |
| 20260505071510 | 55 | 254 | 0.0 | 1.7 | 0.00 | 0.28 | 0.01 | 66 | 1018.0 |
| 20260505070008 | 57 | 245 | 0.0 | 4.3 | 0.00 | 0.28 | 0.01 | 61 | 1017.8 |
| 20260505064522 | 58 | 248 | 1.7 | 5.2 | 0.00 | 0.28 | 0.01 | 58 | 1017.7 |
| 20260505063016 | 59 | 244 | 2.6 | 6.1 | 0.00 | 0.28 | 0.01 | 57 | 1017.5 |
| 20260505061515 | 60 | 270 | 2.6 | 5.2 | 0.00 | 0.28 | 0.01 | 56 | 1017.5 |
| 20260505060011 | 60 | 252 | 3.5 | 11.3 | 0.00 | 0.28 | 0.01 | 56 | 1017.4 |
| 20260505054526 | 61 | 259 | 0.9 | 4.3 | 0.00 | 0.28 | 0.01 | 55 | 1017.4 |
| 20260505053022 | 61 | 237 | 1.7 | 6.1 | 0.00 | 0.28 | 0.01 | 53 | 1017.4 |
| 20260505051522 | 60 | 234 | 3.5 | 7.8 | 0.00 | 0.28 | 0.01 | 55 | 1017.2 |
| 20260505041520 | 61 | 280 | 3.5 | 9.6 | 0.00 | 0.28 | 0.01 | 58 | 1016.5 |
| 20260505034554 | 60 | 296 | 4.3 | 8.7 | 0.00 | 0.28 | 0.01 | 66 | 1016.3 |
| 20260505033042 | 59 | 275 | 3.5 | 10.4 | 0.00 | 0.28 | 0.01 | 64 | 1016.4 |
| 20260505031503 | 59 | 284 | 5.2 | 11.3 | 0.00 | 0.28 | 0.01 | 63 | 1016.6 |
| 20260505030057 | 58 | 279 | 3.5 | 10.4 | 0.00 | 0.28 | 0.01 | 65 | 1016.9 |
| 20260505024603 | 58 | 279 | 3.5 | 7.8 | 0.00 | 0.28 | 0.01 | 65 | 1017.2 |
| 20260505023052 | 58 | 284 | 3.5 | 8.7 | 0.00 | 0.28 | 0.01 | 65 | 1017.4 |
| 20260505021512 | 57 | 262 | 2.6 | 10.4 | 0.00 | 0.28 | 0.01 | 69 | 1017.6 |
| 20260505020015 | 57 | 306 | 6.1 | 12.2 | 0.00 | 0.28 | 0.01 | 67 | 1017.9 |
| 20260505014511 | 56 | 263 | 5.2 | 12.2 | 0.00 | 0.28 | 0.01 | 66 | 1018.1 |
| 20260505013003 | 56 | 254 | 5.2 | 10.4 | 0.00 | 0.28 | 0.01 | 67 | 1018.5 |
| 20260505011518 | 56 | 268 | 6.1 | 10.4 | 0.00 | 0.28 | 0.01 | 67 | 1018.6 |
| 20260505010058 | 56 | 241 | 4.3 | 10.4 | 0.00 | 0.28 | 0.01 | 69 | 1018.6 |
| 20260505004506 | 55 | 225 | 4.3 | 10.4 | 0.00 | 0.28 | 0.01 | 70 | 1018.8 |
| 20260505003038 | 54 | 270 | 4.3 | 10.4 | 0.00 | 0.28 | 0.01 | 71 | 1018.9 |
| 20260505001549 | 54 | 266 | 2.6 | 7.8 | 0.00 | 0.28 | 0.01 | 75 | 1019.0 |
| 20260505000027 | 53 | 244 | 1.7 | 7.8 | 0.00 | 0.30 | 0.01 | 75 | 1019.0 |
| 20260504234532 | 52 | 281 | 1.7 | 4.3 | 0.00 | 0.30 | 0.01 | 78 | 1019.1 |
| 20260504233019 | 52 | 270 | 1.7 | 7.0 | 0.00 | 0.30 | 0.01 | 77 | 1019.1 |
| 20260504231533 | 52 | 287 | 1.7 | 5.2 | 0.00 | 0.30 | 0.01 | 80 | 1019.0 |
| 20260504230019 | 52 | 263 | 2.6 | 6.1 | 0.00 | 0.41 | 0.01 | 80 | 1018.9 |
| 20260504224537 | 51 | 265 | 2.6 | 5.2 | 0.00 | 0.41 | 0.01 | 81 | 1018.7 |
| 20260504223011 | 50 | 226 | 0.9 | 4.3 | 0.00 | 0.41 | 0.01 | 83 | 1018.5 |
| 20260504221529 | 49 | 237 | 1.7 | 7.0 | 0.00 | 0.41 | 0.01 | 84 | 1018.3 |
| 20260504220019 | 48 | 259 | 0.9 | 2.6 | 0.00 | 0.41 | 0.01 | 86 | 1018.1 |
| 20260504214534 | 47 | 310 | 0.9 | 4.3 | 0.00 | 0.41 | 0.01 | 88 | 1017.9 |
| 20260504213022 | 47 | 294 | 0.0 | 1.7 | 0.00 | 0.41 | 0.01 | 89 | 1017.4 |
| 20260504211543 | 46 | 288 | 0.0 | 2.6 | 0.00 | 0.41 | 0.01 | 89 | 1017.2 |
| 20260504210006 | 45 | 305 | 0.0 | 1.7 | 0.01 | 0.41 | 0.01 | 90 | 1017.0 |
| 20260504204528 | 45 | 315 | 0.0 | 1.7 | 0.01 | 0.41 | 0.01 | 90 | 1017.0 |
| 20260504203134 | 45 | 313 | 0.0 | 1.7 | 0.01 | 0.41 | 0.01 | 90 | 1016.8 |
| 20260504203002 | 45 | 284 | 0.0 | 1.7 | 0.01 | 0.41 | 0.01 | 90 | 1016.8 |
| 20260504201511 | 45 | 357 | 0.0 | 0.9 | 0.01 | 0.41 | 0.01 | 89 | 1016.6 |
| 20260504200059 | 45 | 88 | 0.0 | 2.6 | 0.00 | 0.40 | 0.00 | 90 | 1016.5 |
| 20260504194558 | 45 | 44 | 0.0 | 0.9 | 0.00 | 0.40 | 0.00 | 90 | 1016.2 |
| 20260504193054 | 45 | 33 | 0.0 | 0.9 | 0.00 | 0.40 | 0.00 | 89 | 1015.9 |
| 20260504191502 | 45 | 312 | 0.0 | 0.9 | 0.00 | 0.40 | 0.00 | 88 | 1015.8 |
| 20260504190058 | 46 | 341 | 0.0 | 0.9 | 0.00 | 0.40 | 0.00 | 87 | 1015.7 |
| 20260504184603 | 46 | 312 | 0.0 | 3.5 | 0.00 | 0.40 | 0.00 | 87 | 1015.7 |
| 20260504184502 | 46 | 275 | 0.0 | 2.6 | 0.00 | 0.40 | 0.00 | 87 | 1015.6 |
| 20260504183050 | 47 | 306 | 0.0 | 2.6 | 0.00 | 0.40 | 0.00 | 87 | 1015.5 |
| 20260504181600 | 47 | 259 | 1.7 | 3.5 | 0.00 | 0.40 | 0.00 | 88 | 1015.4 |
| 20260504180036 | 47 | 232 | 0.0 | 0.9 | 0.00 | 0.40 | 0.00 | 89 | 1015.3 |
| 20260504174540 | 47 | 263 | 0.0 | 3.5 | 0.00 | 0.40 | 0.00 | 89 | 1015.2 |
| 20260504173022 | 47 | 263 | 0.0 | 3.5 | 0.00 | 0.40 | 0.00 | 89 | 1015.3 |
| 20260504171532 | 47 | 265 | 0.0 | 2.6 | 0.00 | 0.40 | 0.00 | 90 | 1015.6 |
| 20260504150104 | 49 | 246 | 0.9 | 4.3 | 0.00 | 0.40 | 0.00 | 90 | 1015.4 |